Weather in Abyy

Russia / Sakha (Yakutia) Republic     68°23′32″N   145°04′33″E
temp.,
°C
wind,
m/s
gust,
m/s
humid.,
%
clouds,
%
prec.,
mm/h
press.,
hPa
HPBL,
m
11 may, tue
tue1123:00−2ne3489100 0.0 101980
02:00−3ne2491100 0.0 102093
05:00−4nne2493100 0.0 1021130
08:00−4nne348282 0.0 1021295
11:00−3nne337895 0.0 1022664
14:00−2nne3377100 0.1 1022883
17:00−2nne347799 0.1 1022701
20:00−2nne2384100 0.1 1022428
12 may, wed
wed1223:00−4n2297100 0.2 102217
02:00−6ne349792 0.1 102260
05:00−8nne339671 0.2 102252
08:00−5nne239271 0.0 1021189
11:00−3ne228599 0.1 1020570
14:00−2ene2278100 0.1 1019650
17:00−2ene338296 0.1 1017536
20:00−2ene238592 0.1 1017392
13 may, thu
thu1323:00−7ene2293100 0.1 101620
02:00−6ne3495100 0.0 101458
05:00−5ne3495100 0.0 1014104
08:00−4ne3591100 0.1 1013246
11:00−2ne448993 0.3 1013521
14:00−1ne3382100 0.1 1012581
17:00−1ne3484100 0.1 1013508
20:00−1ne2387100 0.1 1014331
14 may, fri
fri1423:00−3nne1189100 0.1 101410
02:00−3sse1187100 0.0 101510
05:00−4s228958 0.0 101516
08:00−2ssw34857 0.0 1015222
11:000s3481100 0.0 1015530
14:00+1s3475100 0.0 1015583
17:00+3s3569100 0.0 1014534
20:00+2s357256 0.0 1014127
15 may, sat
sat1523:000sse368197 0.0 101494
02:00−1sse3687100 0.0 1014101
05:00−2sse388784 0.0 1014157
08:00+1sse487793 0.0 1014309
11:00+4sse566077 0.0 1013506
14:00+7sse45465 0.0 1012819
17:00+9s45425 0.0 1012997
20:00+7s33544 0.0 101258